AAL3004 KMIA-KCLT

Flight info

Callsign AAL3004
Flight time N/A
Altitude 41000
Route ALTNN2 DUCEN Q87 VIYAP CHECR STOCR4
Aircraft B772/H-SDE2E3FGHIJ5LORVWXY/LB1D1

Departure

Time 2026-04-30 20:17
Airport Miami International Airport (KMIA)

Arrival

Time N/A
Airport Charlotte Douglas International Airport (KCLT)
Time Latitude Longitude Altitude Speed Heading
2026-04-30 19:22 25.79795 -80.27779 19 ft 0 kts 178°
2026-04-30 20:04 25.79796 -80.27779 18 ft 1 kts 178°
2026-04-30 20:04 25.79810 -80.27780 18 ft 2 kts 178°
2026-04-30 20:05 25.79839 -80.27782 18 ft 2 kts 179°
2026-04-30 20:05 25.79854 -80.27779 19 ft 2 kts 200°
2026-04-30 20:05 25.79878 -80.27761 18 ft 2 kts 235°
2026-04-30 20:06 25.79885 -80.27746 18 ft 2 kts 252°
2026-04-30 20:06 25.79888 -80.27731 18 ft 0 kts 267°
2026-04-30 20:06 25.79888 -80.27728 18 ft 0 kts 269°
2026-04-30 20:09 25.79888 -80.27753 18 ft 5 kts 267°
2026-04-30 20:10 25.79898 -80.27877 18 ft 5 kts 309°
2026-04-30 20:10 25.79938 -80.27893 18 ft 7 kts 352°
2026-04-30 20:10 25.79996 -80.27898 18 ft 9 kts 354°
2026-04-30 20:11 25.80049 -80.28010 18 ft 10 kts 267°
2026-04-30 20:11 25.80044 -80.28108 18 ft 15 kts 268°
2026-04-30 20:11 25.80038 -80.28241 18 ft 19 kts 267°
2026-04-30 20:12 25.80025 -80.28586 18 ft 24 kts 268°
2026-04-30 20:12 25.80014 -80.28778 18 ft 25 kts 265°
2026-04-30 20:12 25.80011 -80.28964 18 ft 18 kts 266°
2026-04-30 20:13 25.80002 -80.29110 18 ft 19 kts 266°
2026-04-30 20:13 25.79996 -80.29263 18 ft 20 kts 267°
2026-04-30 20:13 25.79991 -80.29417 18 ft 20 kts 268°
2026-04-30 20:13 25.79984 -80.29579 18 ft 21 kts 266°
2026-04-30 20:14 25.79976 -80.29742 18 ft 21 kts 267°
2026-04-30 20:14 25.79969 -80.29909 18 ft 22 kts 268°
2026-04-30 20:14 25.79967 -80.29993 18 ft 5 kts 268°
2026-04-30 20:14 25.79970 -80.30047 18 ft 9 kts 282°
2026-04-30 20:15 25.80002 -80.30114 18 ft 5 kts 319°
2026-04-30 20:15 25.80036 -80.30123 18 ft 5 kts 358°
2026-04-30 20:15 25.80071 -80.30095 18 ft 7 kts 76°
2026-04-30 20:15 25.80072 -80.30073 18 ft 0 kts 88°
2026-04-30 20:16 25.80073 -80.30044 18 ft 16 kts 87°
2026-04-30 20:16 25.80087 -80.29691 18 ft 80 kts 87°
2026-04-30 20:17 25.80123 -80.28831 19 ft 140 kts 87°
2026-04-30 20:17 25.80184 -80.27597 204 ft 171 kts 88°
2026-04-30 20:17 25.80278 -80.26313 834 ft 169 kts 88°
2026-04-30 20:17 25.80340 -80.24991 1255 ft 180 kts 89°
2026-04-30 20:18 25.80398 -80.23531 1520 ft 202 kts 89°
2026-04-30 20:18 25.80461 -80.21933 1922 ft 220 kts 89°
2026-04-30 20:18 25.80529 -80.20139 2267 ft 240 kts 89°
2026-04-30 20:18 25.80930 -80.18263 2606 ft 263 kts 64°
2026-04-30 20:19 25.82135 -80.16740 3135 ft 274 kts 33°
2026-04-30 20:19 25.83261 -80.16162 3585 ft 276 kts 14°
2026-04-30 20:19 25.85835 -80.15832 3969 ft 280 kts
2026-04-30 20:19 25.87770 -80.15780 3979 ft 281 kts 360°
2026-04-30 20:20 25.89700 -80.15924 3990 ft 279 kts 346°
2026-04-30 20:20 25.91572 -80.16485 3984 ft 277 kts 341°
2026-04-30 20:20 25.93399 -80.17124 3980 ft 277 kts 340°
2026-04-30 20:20 25.95247 -80.17776 4032 ft 285 kts 340°
2026-04-30 20:21 25.97121 -80.18430 4787 ft 281 kts 340°
2026-04-30 20:21 25.98996 -80.19005 5474 ft 282 kts 348°
2026-04-30 20:21 26.00907 -80.19265 6069 ft 285 kts 353°
2026-04-30 20:21 26.02872 -80.19457 6692 ft 286 kts 353°
2026-04-30 20:22 26.04844 -80.19652 7284 ft 288 kts 353°
2026-04-30 20:22 26.06807 -80.19851 7857 ft 289 kts 353°
2026-04-30 20:22 26.08792 -80.20055 8423 ft 291 kts 353°
2026-04-30 20:22 26.10740 -80.20256 8971 ft 293 kts 353°
2026-04-30 20:23 26.12732 -80.20461 9524 ft 294 kts 353°
2026-04-30 20:23 26.14757 -80.20670 10091 ft 296 kts 353°
2026-04-30 20:23 26.16859 -80.20889 10374 ft 309 kts 353°
2026-04-30 20:23 26.19042 -80.21115 10532 ft 324 kts 353°
2026-04-30 20:24 26.21308 -80.21338 10648 ft 339 kts 354°
2026-04-30 20:24 26.23706 -80.21551 10727 ft 353 kts 354°
2026-04-30 20:24 26.26202 -80.21774 10759 ft 366 kts 354°
2026-04-30 20:24 26.28761 -80.22004 10788 ft 377 kts 354°
2026-04-30 20:25 26.34031 -80.22480 11295 ft 382 kts 354°
2026-04-30 20:25 26.36673 -80.22718 11603 ft 384 kts 354°
2026-04-30 20:26 26.42009 -80.23244 12275 ft 387 kts 353°
2026-04-30 20:26 26.47345 -80.23800 13035 ft 391 kts 353°
2026-04-30 20:26 26.50054 -80.24080 13459 ft 393 kts 353°
2026-04-30 20:27 26.55519 -80.24645 14399 ft 398 kts 353°
2026-04-30 20:27 26.61040 -80.25462 15477 ft 403 kts 349°
2026-04-30 20:28 26.66550 -80.26411 16545 ft 409 kts 349°
2026-04-30 20:28 26.72095 -80.27756 17677 ft 411 kts 338°
2026-04-30 20:29 26.77438 -80.29960 18684 ft 418 kts 337°
2026-04-30 20:30 26.85672 -80.33405 20253 ft 427 kts 336°
2026-04-30 20:30 26.94074 -80.36926 21816 ft 435 kts 335°
2026-04-30 20:31 27.02575 -80.40363 23274 ft 444 kts 334°
2026-04-30 20:32 27.11339 -80.43938 24707 ft 452 kts 332°
2026-04-30 20:32 27.17222 -80.46551 25595 ft 458 kts 332°
2026-04-30 20:33 27.20203 -80.47876 26034 ft 461 kts 332°
2026-04-30 20:33 27.26189 -80.50535 26889 ft 467 kts 332°
2026-04-30 20:33 27.29179 -80.51862 27296 ft 470 kts 331°
2026-04-30 20:34 27.35270 -80.54565 28099 ft 475 kts 331°
2026-04-30 20:34 27.41505 -80.57159 28863 ft 483 kts 333°
2026-04-30 20:35 27.44689 -80.58411 29250 ft 485 kts 333°
2026-04-30 20:35 27.47870 -80.59666 29630 ft 487 kts 333°
2026-04-30 20:35 27.54211 -80.62175 30663 ft 484 kts 333°
2026-04-30 20:36 27.57391 -80.63435 31226 ft 482 kts 332°
2026-04-30 20:36 27.60502 -80.64669 31731 ft 480 kts 332°
2026-04-30 20:36 27.66782 -80.67165 32876 ft 475 kts 331°
2026-04-30 20:37 27.69839 -80.68382 33448 ft 473 kts 331°
2026-04-30 20:37 27.72930 -80.69613 33977 ft 471 kts 330°
2026-04-30 20:37 27.76029 -80.70850 34468 ft 470 kts 330°
2026-04-30 20:37 27.79053 -80.72057 34935 ft 469 kts 330°
2026-04-30 20:38 27.82120 -80.73282 35410 ft 468 kts 330°
2026-04-30 20:38 27.85186 -80.74508 35880 ft 466 kts 330°
2026-04-30 20:38 27.88222 -80.75723 36300 ft 464 kts 330°
2026-04-30 20:39 27.94284 -80.78151 36942 ft 465 kts 330°
2026-04-30 20:39 27.97304 -80.79363 37226 ft 465 kts 330°
2026-04-30 20:39 28.00357 -80.80588 37510 ft 465 kts 330°
2026-04-30 20:40 28.06428 -80.83027 38019 ft 465 kts 330°
2026-04-30 20:40 28.09130 -80.84113 38227 ft 465 kts 330°
2026-04-30 20:40 28.11468 -80.85054 38393 ft 465 kts 330°